EW8803 Weather Reports


time (UTC)temp
C
wind
direction
speed
KPH
gust
KPH
rain 1hr
cm
rain 24hr
cm
rain mn
cm
humidity
%
barometer
mb
20260510211104 11 244 0.0 3.2 0.00 1.45 1.45 90 1014.2
20260510210533 11 219 1.6 3.2 0.00 1.45 1.45 90 1014.8
20260510210122 11 264 0.0 3.2 0.00 1.45 1.45 90 1014.8
20260510205517 11 260 0.0 4.8 0.00 1.45 1.45 90 1014.8
20260510205034 11 257 1.6 4.8 0.00 1.45 1.45 90 1014.7
20260510204553 11 217 1.6 4.8 0.00 1.45 1.45 90 1014.6
20260510204032 12 252 0.0 4.8 0.00 1.45 1.45 89 1014.6
20260510203544 12 281 0.0 4.8 0.00 1.45 1.45 90 1014.5
20260510203037 11 240 1.6 6.4 0.00 1.45 1.45 90 1014.4
20260510202528 11 237 3.2 6.4 0.00 1.45 1.45 90 1014.4
20260510202057 12 242 3.2 6.4 0.00 1.45 1.45 91 1014.3
20260510201541 12 213 4.8 6.4 0.00 1.45 1.45 91 1014.3
20260510201036 12 211 3.2 4.8 0.00 1.45 1.45 91 1014.2
20260510200531 12 267 0.0 3.2 0.00 1.45 1.45 91 1014.1
20260510200044 12 284 1.6 6.4 0.00 1.45 1.45 91 1014.2
20260510195552 12 297 3.2 8.0 0.00 1.45 1.45 91 1014.1
20260510195041 12 270 4.8 8.0 0.00 1.45 1.45 92 1014.2
20260510194608 12 208 6.4 9.7 0.00 1.45 1.45 92 1013.4
20260510194043 12 219 4.8 9.7 0.00 1.45 1.45 93 1014.0
20260510193517 12 185 1.6 4.8 0.00 1.45 1.45 93 1013.9
20260510193022 11 125 1.6 4.8 0.00 1.45 1.45 93 1013.8
20260510192558 11 167 3.2 3.2 0.00 1.45 1.45 93 1013.7
20260510192034 11 186 1.6 1.6 0.00 1.45 1.45 93 1013.7
20260510191545 11 146 0.0 1.6 0.00 1.45 1.45 93 1013.5
20260510191024 11 166 1.6 1.6 0.00 1.45 1.45 93 1013.6
20260510190549 11 177 0.0 3.2 0.00 1.45 1.45 93 1013.6
20260510190052 11 169 1.6 6.4 0.00 1.45 1.45 93 1013.5
20260510185540 11 226 0.0 8.0 0.00 1.45 1.45 93 1013.5
20260510185018 11 208 3.2 8.0 0.00 1.45 1.45 92 1013.4
20260510184519 11 221 3.2 6.4 0.00 1.45 1.45 93 1013.3
20260510184119 11 210 3.2 8.0 0.00 1.45 1.45 92 1012.7
20260510183540 11 193 4.8 9.7 0.00 1.45 1.45 92 1013.3
20260510183033 12 195 8.0 9.7 0.00 1.45 1.45 92 1013.4
20260510182540 12 264 4.8 11.3 0.00 1.45 1.45 92 1013.4
20260510182041 12 257 8.0 14.5 0.00 1.45 1.45 92 1013.4
20260510181533 12 230 3.2 14.5 0.00 1.45 1.45 91 1013.3
20260510181017 12 302 6.4 14.5 0.03 1.45 1.45 91 1013.3
20260510180524 12 239 12.9 14.5 0.05 1.45 1.45 91 1013.4
20260510180042 12 251 8.0 12.9 0.05 1.45 1.45 91 1013.3
20260510175542 12 219 9.7 12.9 0.08 1.45 1.45 90 1013.3
20260510175035 12 283 6.4 11.3 0.08 1.45 1.45 90 1013.2
20260510174536 12 198 4.8 9.7 0.08 1.45 1.45 92 1013.1
20260510174027 12 228 6.4 8.0 0.08 1.45 1.45 92 1013.1
20260510173531 12 240 3.2 6.4 0.08 1.45 1.45 92 1013.0
20260510173040 11 276 1.6 11.3 0.10 1.45 1.45 91 1013.1
20260510172532 11 230 1.6 11.3 0.13 1.45 1.45 93 1013.2
20260510172051 11 239 6.4 11.3 0.13 1.45 1.45 93 1013.5
20260510171534 11 237 4.8 12.9 0.13 1.45 1.45 92 1013.2
20260510171046 11 302 3.2 14.5 0.10 1.42 1.42 91 1013.5
20260510170528 11 246 11.3 17.7 0.08 1.40 1.40 89 1013.5
20260510170044 12 296 12.9 17.7 0.05 1.37 1.37 88 1013.5
20260510165541 12 267 8.0 16.1 0.10 1.37 1.37 90 1013.4
20260510165040 12 257 6.4 12.9 0.15 1.37 1.37 91 1013.3
20260510164519 12 248 8.0 16.1 0.18 1.37 1.37 91 1013.3
20260510164040 12 266 8.0 16.1 0.30 1.37 1.37 91 1013.3
20260510163540 12 254 11.3 17.7 0.38 1.37 1.37 91 1013.4
20260510163047 12 288 12.9 17.7 0.43 1.35 1.35 91 1013.3
20260510162636 12 270 6.4 17.7 0.43 1.32 1.32 92 1012.6
20260510162127 11 245 9.7 16.1 0.43 1.32 1.32 92 1012.6
20260510161537 11 210 9.7 16.1 0.51 1.32 1.32 93 1013.2
20260510161042 11 228 6.4 12.9 0.61 1.45 1.32 93 1013.1
20260510160525 11 222 3.2 12.9 0.66 1.45 1.32 93 1013.0
20260510155019 11 291 9.7 22.5 0.58 1.35 1.19 88 1013.2
20260510154547 12 348 11.3 20.9 0.56 1.32 1.17 91 1013.0
20260510154058 12 305 6.4 17.7 0.48 1.24 1.09 92 1013.0
20260510153023 12 286 11.3 14.5 0.30 1.07 0.91 91 1012.9
20260510152549 12 318 8.0 12.9 0.25 1.02 0.89 91 1012.7
20260510152030 12 336 4.8 12.9 0.25 1.02 0.89 91 1012.7
20260510151546 13 322 8.0 12.9 0.18 0.94 0.79 90 1012.7
20260510151022 13 321 1.6 12.9 0.13 0.89 0.74 88 1012.5
20260510150524 13 329 8.0 12.9 0.05 0.81 0.66 87 1012.4
20260510150134 13 327 6.4 11.3 0.00 0.79 0.61 85 1011.8
20260510145524 13 291 0.0 11.3 0.00 0.79 0.61 85 1012.4
20260510145017 13 277 6.4 12.9 0.00 0.79 0.61 83 1012.4
20260510144602 13 281 4.8 16.1 0.03 0.79 0.61 84 1012.5
20260510144043 13 276 8.0 16.1 0.03 0.79 0.61 84 1012.6
20260510143526 13 312 8.0 12.9 0.03 0.79 0.61 84 1012.7
20260510143023 13 271 6.4 14.5 0.05 0.79 0.61 85 1012.7
20260510142546 13 11 8.0 14.5 0.05 0.79 0.61 84 1012.6
20260510142039 13 279 9.7 16.1 0.05 0.79 0.61 85 1012.7
20260510141536 13 295 8.0 22.5 0.05 0.79 0.61 86 1012.8
20260510141057 13 273 11.3 22.5 0.05 0.79 0.61 86 1012.9
20260510140535 12 266 6.4 25.7 0.10 0.79 0.61 90 1013.1
20260510140046 12 274 20.9 25.7 0.18 0.79 0.61 88 1013.2
20260510135038 12 330 16.1 24.1 0.23 0.79 0.61 92 1013.3
20260510134534 12 292 8.0 22.5 0.20 0.76 0.61 94 1013.3
20260510134032 12 262 12.9 22.5 0.20 0.76 0.61 93 1013.3
20260510133526 12 293 9.7 20.9 0.23 0.76 0.61 94 1013.2
20260510133030 12 288 11.3 27.4 0.23 0.76 0.61 93 1013.3
20260510132036 12 248 12.9 24.1 0.25 0.74 0.58 93 1013.3
20260510131534 12 241 12.9 29.0 0.25 0.71 0.56 94 1013.3
20260510131049 11 257 19.3 29.0 0.25 0.71 0.56 93 1013.2
20260510130622 11 315 12.9 33.8 0.23 0.71 0.53 93 1012.6
20260510130101 12 244 20.9 33.8 0.15 0.61 0.43 91 1013.3
20260510125617 12 269 11.3 25.7 0.10 0.56 0.41 92 1012.5
20260510125030 12 283 12.9 22.5 0.10 0.56 0.41 92 1012.9
20260510124544 11 269 17.7 22.5 0.10 0.56 0.41 93 1012.9
20260510124045 11 285 11.3 19.3 0.10 0.56 0.41 93 1012.9
20260510123046 11 293 9.7 20.9 0.05 0.51 0.36 92 1012.9
20260510122542 12 290 12.9 30.6 0.05 0.51 0.33 89 1013.9
20260510122100 13 308 12.9 30.6 0.05 0.48 0.33 85 1013.8
20260510121127 13 228 9.7 20.9 0.08 0.46 0.30 89 1011.8
20260510120546 13 200 9.7 20.9 0.10 0.46 0.30 89 1013.3
20260510120124 13 241 14.5 20.9 0.10 0.46 0.30 90 1013.5
20260510115019 12 228 16.1 24.1 0.15 0.46 0.30 91 1013.9
20260510114525 12 234 12.9 22.5 0.15 0.46 0.30 92 1013.9
20260510114034 12 217 9.7 24.1 0.15 0.46 0.30 92 1013.8
20260510113029 12 244 14.5 22.5 0.15 0.46 0.30 92 1014.1
20260510112525 12 221 16.1 20.9 0.15 0.43 0.28 93 1014.1
20260510112041 12 188 12.9 20.9 0.15 0.43 0.28 93 1014.1
20260510111534 12 243 9.7 20.9 0.15 0.43 0.28 92 1014.0
20260510111027 12 205 9.7 20.9 0.10 0.43 0.23 92 1014.1
20260510110618 12 318 11.3 27.4 0.05 0.38 0.20 91 1012.6
20260510110048 12 237 16.1 27.4 0.05 0.38 0.20 90 1014.2
20260510105517 12 217 14.5 24.1 0.05 0.36 0.18 90 1014.1
20260510105040 12 248 11.3 12.9 0.05 0.33 0.15 90 1014.1
20260510104543 12 231 4.8 19.3 0.05 0.33 0.15 91 1014.1
20260510104127 12 211 9.7 20.9 0.05 0.33 0.15 90 1012.6
20260510103520 12 201 11.3 24.1 0.05 0.33 0.15 89 1014.1
20260510103040 12 201 14.5 24.1 0.05 0.33 0.15 87 1014.1
20260510102526 13 264 9.7 24.1 0.03 0.33 0.15 86 1014.1
20260510102114 13 240 12.9 24.1 0.03 0.33 0.15 85 1012.6
20260510101537 13 220 12.9 24.1 0.03 0.33 0.15 86 1014.2
20260510101044 13 223 11.3 24.1 0.03 0.56 0.15 86 1014.1
20260510100541 13 248 16.1 24.1 0.03 0.56 0.15 85 1014.1
20260510100044 13 224 14.5 20.9 0.03 0.56 0.15 83 1014.1
20260510095613 13 215 14.5 32.2 0.00 0.53 0.13 81 1012.6
20260510095043 13 250 16.1 35.4 0.00 0.53 0.13 78 1014.0
20260510094524 13 269 20.9 32.2 0.00 0.53 0.13 77 1014.0
20260510094030 13 221 16.1 29.0 0.00 0.53 0.13 77 1014.0
20260510093529 13 252 17.7 29.0 0.00 0.53 0.13 77 1013.9
20260510093021 13 216 17.7 29.0 0.00 0.53 0.13 77 1013.9
20260510092516 13 204 20.9 24.1 0.00 0.53 0.13 77 1013.9
20260510092028 13 182 11.3 27.4 0.00 0.53 0.13 78 1013.9
20260510091524 13 217 14.5 27.4 0.00 0.53 0.13 77 1013.8
20260510091044 13 245 12.9 37.0 0.00 0.53 0.13 77 1013.9
20260510090543 13 222 17.7 37.0 0.00 0.53 0.13 77 1013.8
20260510085542 13 210 14.5 27.4 0.00 0.53 0.13 77 1013.7
20260510085039 13 232 9.7 27.4 0.00 0.53 0.13 78 1013.7
20260510084608 13 234 22.5 27.4 0.00 0.53 0.13 78 1012.1
20260510084019 13 224 12.9 25.7 0.00 0.53 0.13 80 1013.7
20260510083546 13 257 14.5 22.5 0.00 0.53 0.13 80 1013.7
20260510083037 13 176 6.4 22.5 0.00 0.53 0.13 83 1012.8
20260510082620 13 115 8.0 20.9 0.00 0.53 0.13 83 1012.3
20260510082058 13 216 8.0 24.1 0.00 0.53 0.13 83 1013.0
20260510081518 13 200 17.7 24.1 0.00 0.53 0.13 82 1013.0
20260510081040 13 231 12.9 24.1 0.00 0.56 0.13 83 1013.0
20260510080605 13 221 12.9 24.1 0.00 0.56 0.13 85 1012.3
20260510080120 13 217 19.3 24.1 0.00 0.56 0.13 85 1012.8
20260510075530 13 191 8.0 24.1 0.00 0.56 0.13 87 1012.9
20260510075018 13 177 14.5 24.1 0.00 0.56 0.13 86 1012.9
20260510074524 13 188 14.5 22.5 0.00 0.56 0.13 87 1012.9
20260510074039 12 165 9.7 20.9 0.00 0.56 0.13 90 1012.8
20260510073538 12 136 6.4 20.9 0.00 0.56 0.13 91 1013.0
20260510073025 12 210 9.7 16.1 0.00 0.56 0.13 93 1012.9
20260510072519 11 212 9.7 17.7 0.00 0.56 0.13 93 1012.9
20260510072036 11 174 12.9 20.9 0.00 0.56 0.13 94 1013.0
20260510071520 11 201 4.8 20.9 0.00 0.56 0.13 94 1013.0
20260510071025 11 229 8.0 17.7 0.00 0.56 0.13 94 1013.1
20260510070103 11 218 9.7 12.9 0.00 0.56 0.13 94 1013.0
20260510065517 11 222 6.4 11.3 0.00 0.56 0.13 94 1012.9
20260510065030 11 215 4.8 12.9 0.00 0.56 0.13 94 1012.8
20260510064532 11 181 8.0 12.9 0.00 0.56 0.13 95 1012.7
20260510064101 11 228 4.8 8.0 0.00 0.56 0.13 95 1012.8
20260510063532 11 163 4.8 9.7 0.00 0.56 0.13 95 1012.7
20260510063101 11 152 6.4 9.7 0.00 0.56 0.13 95 1012.7
20260510062530 11 201 4.8 9.7 0.00 0.56 0.13 95 1012.7
20260510062031 11 200 4.8 9.7 0.00 0.56 0.13 95 1012.7
20260510061516 11 211 4.8 9.7 0.00 0.56 0.13 95 1012.6
20260510061109 11 210 4.8 8.0 0.00 0.56 0.13 95 1011.9
20260510060044 11 134 3.2 9.7 0.03 0.56 0.13 95 1012.5
20260510055520 11 207 4.8 9.7 0.05 0.56 0.13 95 1012.5
20260510055033 11 214 6.4 8.0 0.08 0.56 0.13 95 1012.4
20260510054537 11 205 1.6 8.0 0.08 0.56 0.13 95 1013.4
20260510054025 11 190 3.2 8.0 0.08 0.56 0.13 95 1013.4
20260510053616 11 229 1.6 8.0 0.08 0.56 0.13 95 1011.8
20260510052530 11 141 1.6 11.3 0.10 0.56 0.13 95 1013.4
20260510052035 11 211 4.8 9.7 0.13 0.56 0.13 95 1013.4
20260510051532 11 226 4.8 9.7 0.13 0.56 0.13 95 1013.4
20260510051040 11 252 4.8 8.0 0.13 0.56 0.13 95 1013.5
20260510050620 11 212 4.8 9.7 0.13 0.56 0.13 94 1011.8
20260510050058 11 216 8.0 9.7 0.10 0.53 0.10 94 1013.3
20260510045601 11 198 4.8 12.9 0.08 0.51 0.08 94 1013.3
20260510045017 11 222 4.8 12.9 0.05 0.48 0.05 94 1013.3
20260510044517 11 201 6.4 9.7 0.05 0.48 0.05 94 1013.3
20260510044100 11 231 3.2 6.4 0.05 0.48 0.05 93 1013.2
20260510043542 11 184 3.2 11.3 0.05 0.48 0.05 93 1013.3
20260510043026 11 150 6.4 16.1 0.03 0.46 0.03 93 1013.3
20260510042538 11 214 9.7 16.1 0.03 0.46 0.03 93 1013.3
20260510042016 11 208 9.7 17.7 0.03 0.46 0.03 92 1013.3
20260510041520 11 212 8.0 17.7 0.00 0.43 0.00 92 1013.3
20260510041129 11 231 4.8 12.9 0.00 0.43 0.00 91 1011.7
20260510040528 11 207 4.8 14.5 0.00 0.43 0.00 91 1013.3
20260510035535 11 126 3.2 11.3 0.00 0.43 0.00 90 1013.3
20260510035032 11 188 1.6 9.7 0.00 0.43 0.00 90 1013.4
20260510034522 11 200 1.6 9.7 0.00 0.43 0.00 89 1013.4
20260510034142 11 211 4.8 8.0 0.00 0.43 0.00 89 1011.9
20260510033523 11 148 1.6 8.0 0.00 0.43 0.00 89 1013.6
20260510033043 11 194 0.0 6.4 0.00 0.43 0.00 89 1013.6
20260510032546 11 191 0.0 6.4 0.00 0.43 0.00 88 1013.5
20260510032025 11 166 3.2 6.4 0.00 0.43 0.00 87 1013.5
20260510031551 11 180 0.0 4.8 0.00 0.43 0.00 87 1013.4
20260510031058 11 209 0.0 3.2 0.00 0.43 0.00 87 1013.5
20260510030522 11 201 0.0 4.8 0.00 0.43 0.00 86 1013.5
20260510030043 11 203 3.2 6.4 0.00 0.43 0.00 86 1013.5
20260510025527 11 226 4.8 6.4 0.00 0.43 0.00 86 1013.5
20260510025024 11 167 0.0 0.0 0.00 0.43 0.00 86 1013.5
20260510024520 11 217 0.0 0.0 0.00 0.43 0.00 86 1013.5
20260510023602 11 182 0.0 0.0 0.00 0.43 0.00 86 1013.6
20260510023056 11 184 0.0 0.0 0.00 0.43 0.00 86 1013.6
20260510022517 11 217 0.0 0.0 0.00 0.43 0.00 86 1013.6
20260510022016 11 226 0.0 0.0 0.00 0.43 0.00 86 1013.7
20260510021538 11 236 0.0 0.0 0.00 0.43 0.00 85 1013.7
20260510021041 11 266 0.0 0.0 0.00 0.43 0.00 85 1013.8
20260510020537 11 226 0.0 0.0 0.00 0.43 0.00 85 1013.7
20260510020100 11 230 0.0 0.0 0.00 0.43 0.00 85 1013.8
20260510015015 11 240 0.0 3.2 0.00 0.43 0.00 85 1013.8
20260510014602 11 278 0.0 1.6 0.00 0.43 0.00 85 1013.7
20260510014039 11 285 0.0 1.6 0.00 0.43 0.00 85 1013.7
20260510013516 11 277 0.0 1.6 0.00 0.43 0.00 85 1013.7
20260510013034 11 132 0.0 4.8 0.00 0.43 0.00 85 1013.8
20260510012517 11 290 0.0 8.0 0.00 0.43 0.00 85 1013.8
20260510012037 11 264 3.2 9.7 0.00 0.43 0.00 85 1013.8
20260510011525 11 244 4.8 9.7 0.00 0.43 0.00 84 1013.9
20260510011028 11 239 4.8 8.0 0.00 0.43 0.00 84 1014.0
20260510010526 11 226 1.6 8.0 0.00 0.43 0.00 84 1014.0
20260510010059 11 259 3.2 8.0 0.00 0.43 0.00 84 1014.2
20260510005536 11 263 6.4 9.7 0.00 0.43 0.00 84 1014.1
20260510005022 11 264 3.2 12.9 0.00 0.43 0.00 83 1014.1
20260510004041 11 228 4.8 12.9 0.00 0.43 0.00 83 1014.1
20260510003541 11 255 3.2 14.5 0.00 0.43 0.00 82 1014.1
20260510003032 11 214 8.0 14.5 0.00 0.43 0.00 82 1014.1
20260510002516 11 222 6.4 11.3 0.00 0.43 0.00 82 1014.1
20260510002019 11 213 6.4 16.1 0.00 0.43 0.00 82 1014.1
20260510001534 11 245 11.3 16.1 0.00 0.43 0.00 82 1014.1
20260510001023 11 231 6.4 17.7 0.00 0.43 0.00 82 1014.1
20260510000523 11 231 11.3 17.7 0.00 0.43 0.00 82 1014.1
20260510000105 11 240 12.9 17.7 0.00 0.43 0.00 82 1014.1
20260509235533 11 233 11.3 19.3 0.00 0.43 0.00 81 1014.0
20260509235031 12 212 8.0 22.5 0.00 0.43 0.00 81 1014.0
20260509234550 12 237 12.9 25.7 0.00 0.43 0.00 81 1014.1
20260509234028 12 232 12.9 25.7 0.00 0.43 0.00 81 1014.1
20260509233618 12 227 14.5 22.5 0.00 0.43 0.00 80 1012.5
20260509233046 12 219 14.5 22.5 0.00 0.43 0.00 80 1014.2
20260509232525 12 238 12.9 20.9 0.00 0.43 0.00 80 1014.1
20260509232030 12 221 9.7 17.7 0.00 0.43 0.00 80 1014.2
20260509231531 12 236 9.7 20.9 0.00 0.43 0.00 80 1014.2
20260509231032 12 241 9.7 20.9 0.00 0.43 0.00 79 1014.3
20260509230536 12 263 11.3 24.1 0.00 0.43 0.00 80 1014.3
20260509230050 12 243 11.3 24.1 0.00 0.43 0.00 79 1014.3
20260509225642 12 258 14.5 22.5 0.00 0.43 0.00 80 1012.7
20260509225032 12 221 9.7 24.1 0.00 0.43 0.00 80 1014.1
20260509224535 12 241 11.3 24.1 0.00 0.43 0.00 79 1014.1
20260509224035 12 212 16.1 29.0 0.00 0.43 0.00 79 1014.0
20260509223540 12 232 12.9 29.0 0.00 0.43 0.00 80 1014.0
20260509223016 12 222 14.5 19.3 0.00 0.43 0.00 80 1014.0
20260509222539 12 230 12.9 22.5 0.00 0.43 0.00 79 1014.1
20260509222036 12 245 16.1 22.5 0.00 0.43 0.00 79 1014.0
20260509221525 12 228 14.5 22.5 0.00 0.43 0.00 79 1014.1
20260509221018 12 252 14.5 20.9 0.00 0.43 0.00 79 1014.0
20260509220529 12 243 11.3 17.7 0.00 0.43 0.00 79 1014.1
20260509220116 12 238 11.3 16.1 0.00 0.43 0.43 79 1014.0
20260509215617 12 204 11.3 19.3 0.00 0.43 0.43 79 1012.3
20260509215136 12 244 11.3 17.7 0.00 0.43 0.43 80 1012.3
20260509214523 13 243 14.5 19.3 0.00 0.43 0.43 80 1013.8
20260509213525 13 217 9.7 19.3 0.00 0.43 0.43 80 1013.7
20260509213027 13 243 9.7 17.7 0.00 0.43 0.43 79 1013.6
20260509212524 13 220 9.7 14.5 0.00 0.43 0.43 79 1013.7
20260509212057 13 208 6.4 12.9 0.00 0.43 0.43 79 1013.7
20260509211535 13 218 8.0 12.9 0.00 0.43 0.43 78 1013.6